Meteo orario Abaliget

Oggi, 18 Giugno, Venerdi

Tempo Temperatura Precipitazioni Vento Pressione Umidità
00:00 +21°C° 0 mm 1 m/s 747 mm Hg 69%
01:00 +20°C° 0 mm 1 m/s 747 mm Hg 69%
02:00 +20°C° 0 mm 1 m/s 747 mm Hg 71%
03:00 +20°C° 0 mm 1 m/s 747 mm Hg 73%
04:00 +19°C° 0 mm 1 m/s 747 mm Hg 75%
05:00 +21°C° 0 mm 1 m/s 747 mm Hg 71%
06:00 +23°C° 0 mm 1 m/s 747 mm Hg 68%
07:00 +24°C° 0 mm 2 m/s 748 mm Hg 65%
08:00 +26°C° 0 mm 2 m/s 748 mm Hg 60%
09:00 +27°C° 0 mm 1 m/s 747 mm Hg 55%
10:00 +29°C° 0 mm 1 m/s 747 mm Hg 50%
11:00 +29°C° 0 mm 1 m/s 747 mm Hg 49%
12:00 +29°C° 0 mm 1 m/s 747 mm Hg 47%
13:00 +30°C° 0 mm 1 m/s 747 mm Hg 46%
14:00 +30°C° 0 mm 1 m/s 747 mm Hg 48%
15:00 +29°C° 0 mm 1 m/s 746 mm Hg 49%
16:00 +29°C° 0 mm 1 m/s 746 mm Hg 51%
17:00 +28°C° 0 mm 1 m/s 746 mm Hg 55%
18:00 +27°C° 0 mm 1 m/s 746 mm Hg 59%
19:00 +26°C° 0 mm 1 m/s 746 mm Hg 63%
20:00 +25°C° 0 mm 1 m/s 746 mm Hg 63%
21:00 +23°C° 0 mm 1 m/s 746 mm Hg 64%
22:00 +22°C° 0 mm 1 m/s 746 mm Hg 65%
23:00 +20°C° 0 mm 0 m/s 746 mm Hg 67%

Domani, 19 Giugno, Sabato

Tempo Temperatura Precipitazioni Vento Pressione Umidità
00:00 +20°C° 0 mm 0 m/s 746 mm Hg 68%
01:00 +19°C° 0 mm 0 m/s 745 mm Hg 69%
02:00 +19°C° 0 mm 0 m/s 745 mm Hg 71%
03:00 +18°C° 0 mm 0 m/s 745 mm Hg 72%
04:00 +18°C° 0 mm 0 m/s 745 mm Hg 73%
05:00 +22°C° 0 mm 1 m/s 745 mm Hg 70%
06:00 +23°C° 0 mm 1 m/s 746 mm Hg 66%
07:00 +25°C° 0 mm 1 m/s 746 mm Hg 62%
08:00 +27°C° 0 mm 1 m/s 746 mm Hg 57%
09:00 +28°C° 0 mm 1 m/s 745 mm Hg 53%
10:00 +30°C° 0 mm 2 m/s 745 mm Hg 48%
11:00 +30°C° 0 mm 2 m/s 745 mm Hg 46%
12:00 +31°C° 0 mm 2 m/s 745 mm Hg 44%
13:00 +32°C° 0 mm 2 m/s 745 mm Hg 42%
14:00 +32°C° 0 mm 2 m/s 744 mm Hg 42%
15:00 +32°C° 0 mm 2 m/s 744 mm Hg 43%
16:00 +33°C° 0 mm 3 m/s 744 mm Hg 43%
17:00 +30°C° 0 mm 2 m/s 744 mm Hg 50%
18:00 +28°C° 0 mm 2 m/s 744 mm Hg 57%
19:00 +27°C° 0 mm 1 m/s 744 mm Hg 64%
20:00 +26°C° 0 mm 1 m/s 744 mm Hg 66%
21:00 +24°C° 0 mm 1 m/s 744 mm Hg 67%
22:00 +23°C° 0 mm 1 m/s 744 mm Hg 69%
23:00 +23°C° 0 mm 1 m/s 744 mm Hg 71%

Dopodomani, 20 Giugno, Domenica

Tempo Temperatura Precipitazioni Vento Pressione Umidità
00:00 +22°C° 0 mm 1 m/s 744 mm Hg 72%
01:00 +20°C° 0 mm 0 m/s 744 mm Hg 74%
02:00 +19°C° 0 mm 0 m/s 744 mm Hg 75%
03:00 +19°C° 0 mm 0 m/s 744 mm Hg 77%
04:00 +19°C° 0 mm 0 m/s 744 mm Hg 78%
05:00 +20°C° 0 mm 0 m/s 744 mm Hg 74%
06:00 +24°C° 0 mm 1 m/s 744 mm Hg 70%
07:00 +26°C° 0 mm 1 m/s 744 mm Hg 65%
08:00 +27°C° 0 mm 1 m/s 744 mm Hg 61%
09:00 +29°C° 0 mm 1 m/s 744 mm Hg 56%
10:00 +30°C° 0 mm 1 m/s 744 mm Hg 51%
11:00 +31°C° 0 mm 2 m/s 743 mm Hg 48%
12:00 +32°C° 0 mm 2 m/s 743 mm Hg 46%
13:00 +32°C° 0 mm 2 m/s 743 mm Hg 44%
14:00 +32°C° 0 mm 2 m/s 742 mm Hg 44%
15:00 +32°C° 0 mm 2 m/s 742 mm Hg 45%
16:00 +32°C° 0 mm 2 m/s 742 mm Hg 45%
17:00 +31°C° 0 mm 3 m/s 741 mm Hg 52%
18:00 +29°C° 0 mm 3 m/s 741 mm Hg 59%
19:00 +27°C° 0 mm 3 m/s 741 mm Hg 66%
20:00 +26°C° 0.1 mm 2 m/s 741 mm Hg 71%
21:00 +24°C° 0.1 mm 2 m/s 741 mm Hg 75%
22:00 +23°C° 0.1 mm 2 m/s 741 mm Hg 80%
23:00 +21°C° 0.4 mm 2 m/s 740 mm Hg 83%

21 Giugno, Lunedi

Tempo Temperatura Precipitazioni Vento Pressione Umidità
00:00 +21°C° 0.4 mm 2 m/s 740 mm Hg 86%
01:00 +20°C° 0.4 mm 2 m/s 740 mm Hg 90%
02:00 +20°C° 0 mm 2 m/s 740 mm Hg 90%
03:00 +20°C° 0 mm 2 m/s 739 mm Hg 89%
04:00 +20°C° 0 mm 2 m/s 739 mm Hg 89%
05:00 +21°C° 0 mm 2 m/s 740 mm Hg 85%
06:00 +23°C° 0 mm 1 m/s 740 mm Hg 80%
07:00 +25°C° 0 mm 1 m/s 740 mm Hg 76%
08:00 +27°C° 0 mm 2 m/s 740 mm Hg 68%
09:00 +29°C° 0 mm 2 m/s 740 mm Hg 59%
10:00 +31°C° 0 mm 3 m/s 740 mm Hg 51%
11:00 +33°C° 0 mm 3 m/s 740 mm Hg 47%
12:00 +34°C° 0 mm 4 m/s 739 mm Hg 43%
13:00 +35°C° 0 mm 4 m/s 739 mm Hg 38%
14:00 +35°C° 0 mm 4 m/s 739 mm Hg 38%
15:00 +36°C° 0 mm 4 m/s 739 mm Hg 38%
16:00 +36°C° 0 mm 4 m/s 739 mm Hg 37%
17:00 +34°C° 0 mm 4 m/s 739 mm Hg 44%
18:00 +31°C° 0 mm 3 m/s 739 mm Hg 51%
19:00 +29°C° 0 mm 3 m/s 739 mm Hg 57%
20:00 +27°C° 0 mm 3 m/s 739 mm Hg 61%
21:00 +26°C° 0 mm 2 m/s 739 mm Hg 64%
22:00 +24°C° 0 mm 2 m/s 740 mm Hg 67%
23:00 +23°C° 0 mm 2 m/s 740 mm Hg 67%

22 Giugno, Martedi

Tempo Temperatura Precipitazioni Vento Pressione Umidità
00:00 +22°C° 0 mm 3 m/s 740 mm Hg 67%
01:00 +21°C° 0 mm 3 m/s 740 mm Hg 68%
02:00 +21°C° 0 mm 3 m/s 740 mm Hg 72%
03:00 +20°C° 0 mm 3 m/s 740 mm Hg 76%
04:00 +20°C° 0 mm 3 m/s 740 mm Hg 79%
05:00 +21°C° 0 mm 3 m/s 741 mm Hg 77%
06:00 +24°C° 0 mm 3 m/s 741 mm Hg 74%
07:00 +26°C° 0 mm 2 m/s 742 mm Hg 72%
08:00 +28°C° 0 mm 2 m/s 742 mm Hg 64%
09:00 +30°C° 0 mm 3 m/s 742 mm Hg 56%
10:00 +31°C° 0 mm 3 m/s 742 mm Hg 49%
11:00 +33°C° 0 mm 3 m/s 742 mm Hg 44%
12:00 +34°C° 0 mm 3 m/s 742 mm Hg 40%
13:00 +35°C° 0 mm 4 m/s 742 mm Hg 35%
14:00 +35°C° 0 mm 3 m/s 742 mm Hg 35%
15:00 +36°C° 0 mm 3 m/s 742 mm Hg 35%
16:00 +36°C° 0 mm 3 m/s 742 mm Hg 35%
17:00 +34°C° 0 mm 2 m/s 742 mm Hg 43%
18:00 +31°C° 0 mm 2 m/s 741 mm Hg 50%
19:00 +29°C° 0 mm 1 m/s 741 mm Hg 57%
20:00 +28°C° 0 mm 1 m/s 742 mm Hg 59%
21:00 +27°C° 0 mm 2 m/s 742 mm Hg 62%
22:00 +26°C° 0 mm 2 m/s 742 mm Hg 65%
23:00 +25°C° 0 mm 2 m/s 742 mm Hg 66%

23 Giugno, Mercoledi

Tempo Temperatura Precipitazioni Vento Pressione Umidità
00:00 +24°C° 0 mm 2 m/s 742 mm Hg 67%
01:00 +24°C° 0 mm 1 m/s 742 mm Hg 69%
02:00 +23°C° 0 mm 1 m/s 742 mm Hg 67%
03:00 +23°C° 0 mm 2 m/s 743 mm Hg 66%
04:00 +23°C° 0 mm 2 m/s 743 mm Hg 65%
05:00 +24°C° 0 mm 2 m/s 743 mm Hg 62%
06:00 +26°C° 0 mm 2 m/s 743 mm Hg 59%
07:00 +28°C° 0 mm 2 m/s 744 mm Hg 56%
08:00 +29°C° 0 mm 2 m/s 744 mm Hg 52%
09:00 +31°C° 0 mm 2 m/s 744 mm Hg 48%
10:00 +32°C° 0 mm 2 m/s 744 mm Hg 45%
11:00 +34°C° 0 mm 2 m/s 744 mm Hg 43%
12:00 +34°C° 0 mm 1 m/s 744 mm Hg 40%
13:00 +36°C° 0 mm 1 m/s 744 mm Hg 38%
14:00 +36°C° 0 mm 1 m/s 744 mm Hg 38%
15:00 +37°C° 0 mm 2 m/s 743 mm Hg 38%
16:00 +37°C° 0 mm 2 m/s 743 mm Hg 38%
17:00 +35°C° 0 mm 2 m/s 743 mm Hg 45%
18:00 +34°C° 0 mm 2 m/s 742 mm Hg 53%
19:00 +31°C° 0 mm 2 m/s 742 mm Hg 60%
20:00 +29°C° 0 mm 2 m/s 742 mm Hg 63%
21:00 +28°C° 0 mm 3 m/s 742 mm Hg 66%
22:00 +26°C° 0 mm 3 m/s 742 mm Hg 69%
23:00 +25°C° 0.1 mm 3 m/s 743 mm Hg 77%
Mostrare altro

Abbiamo bisogno del tuo consenso

Meteoprog e i nostri fornitori di servizi possono memorizzare e accedere a dati personali come cookie, identificatori di dispositivi o altre tecnologie simili sul tuo dispositivo e possono elaborare tali dati per personalizzare i contenuti e gli annunci, nonché fornire funzionalità dei social media e analizzarne il traffico.

  • Archiviare e/o accedere alle informazioni sul tuo dispositivo

    Cookie, identificatori di dispositivi o altre informazioni possono essere memorizzati o resi accessibili sul tuo dispositivo per le finalità sopra indicate.

  • Annunci e contenuti personalizzati, misurazione di annunci e contenuti, approfondimenti sul pubblico e sviluppo di prodotti

    Gli annunci e i contenuti possono essere personalizzati in base a un profilo. È possibile aggiungere più dati per personalizzare meglio annunci e contenuti. È possibile misurare il rendimento degli annunci e dei contenuti. È possibile ricavare informazioni sul pubblico che ha visto gli annunci e i contenuti. Tali dati possono essere utilizzati per sviluppare o migliorare l'esperienza, i sistemi e il software dell'utente.

Cliccando su “Accetto”, acconsenti all'uso di cookie, identificatori di dispositivo, web beacon o altre tecnologie simili. Puoi modificare le impostazioni nel browser del tuo dispositivo.

Per determinati scopi, è possibile fare affidamento su interessi legali, piuttosto che sul consenso. Puoi approfondire questo argomento consultando la nostra Informativa sulla privacy e sui cookie.